Location: Spruce Knob
(38.6995°N, 79.5330°W)
Time: 23:00:44
(UTC-04:00)

A-11 Canister half - Pass Details

Date: 31 January 2022
Orbit: 1513 x 1686 km, 47.2° (Epoch: 24 May)

Event Time Altitude Azimuth Distance (km) Brightness Sun altitude
Rises 20:02:02 0° 296° (WNW) 4,714 12.5 -28.1°
Reaches altitude 10° 20:05:10 10° 299° (WNW) 3,712 11.7 -28.7°
Maximum altitude 20:14:28 68° 22° (NNE) 1,614 8.9 -30.5°
Enters shadow 20:15:50 61° 65° (ENE) 1,686 8.8 -30.8°
Drops below altitude 10° 20:23:39 10° 105° (ESE) 3,669 - -32.3°
Sets 20:26:43 0° 108° (ESE) 4,657 - -32.9°
